Tracking 31027 objects as of 19-Jul-2025
HD Live streaming from Space Station
objects crossing your sky now

CZ-6A DEB

Track CZ-6A DEB now!
10-day predictions


NORAD ID: 54342
Int'l Code: 2022-151CM
Perigee: 833.8 km
Apogee: 907.7 km
Inclination: 98.8 °
Period: 102.2 minutes
Semi major axis: 7241 km
RCS: Unknown
Launch date: November 11, 2022
Source: People's Republic of China (PRC)
Launch site: Taiyaun Space Center, China (TSC)

Note: This is SATELLITE DEBRIS
Your satellite tracking list
FLOCK 3P 17
Track 1 satellite(s)




NASA's NSSDC Master Catalog

Two Line Element Set (TLE):
1 54342U 22151CM  25199.49576164  .00000253  00000-0  17004-3 0  9992
2 54342  98.8223 197.3067 0051026 212.4934 147.3092 14.08750222137305
Source of the keplerian elements: AFSPC